Weather in Vilkovo

Ukraine / Odesa District     45˚24′10″N   29˚35′00″E
temp.,
°C
wind,
m/s
gust,
m/s
humid.,
%
clouds,
%
prec.,
mm/h
press.,
hPa
HPBL,
m
1 december, tue
tue123:00+1˚n91496100 1.1 1023507
02:00+1˚n71296100 2.4 1023557
05:00n61097100 0.6 1023596
08:00n71091100 0.8 1023579
11:00+2˚n71090100 0.0 1023444
14:00+2˚n7995100 0.0 1022428
17:00+2˚n6897100 0.1 1022332
20:00+3˚nne5893100 0.1 1023428
2 december, wed
wed223:00+3˚n4794100 0.0 1024421
02:00+2˚n4690100 0.0 1024474
05:00+2˚n5787100 0.0 1024519
08:00+2˚n3587100 0.0 1024451
11:00+4˚n347683 0.0 1024624
14:00+5˚n447467 0.0 1024623
17:00+2˚nne358746 0.0 1024177
20:00+2˚nne348870 0.0 1024192
3 december, thu
thu323:00+1˚nne239075 0.0 102497
02:00+3˚nne238784 0.0 1024127
05:00+3˚ne3489100 0.0 1024164
08:00+6˚e478999 0.1 1024223
11:00+9˚se578168 0.0 1023580
14:00+8˚se378684 0.5 1022283
17:00+8˚se488694 0.0 1021198
20:00+9˚se5108593 0.0 1021351
4 december, fri
fri423:00+10˚se51185100 0.0 1020427
02:00+10˚se5109199 0.3 1019376
05:00+10˚se7128898 0.4 1018522
08:00+11˚se6118593 0.5 1019611
11:00+12˚se71080100 0.2 1019866
14:00+12˚se697697 0.3 1018875
17:00+11˚ese598884 0.0 1018392
20:00+11˚ese5108792 0.0 1019399
5 december, sat
sat523:00+11˚ese5108596 0.0 1019538
02:00+11˚ese479098 0.0 1019286
05:00+11˚ese51094100 0.0 1019400
08:00+11˚ese51094100 0.0 1020402
11:00+13˚se6108093 0.0 1021586
14:00+13˚ese6107897 0.0 1020584
17:00+10˚e598958 0.0 1020309
20:00+10˚ese5108877 0.0 1021345